RH
35 38 39 37 35 34 39 48 49 49 54 63 71 77 79 78 81 86 87 89 91 91 91 88 86 86 85 83 81 75 64 54 47 44 42 43 44 43 42 44 46 45 45 46 45 44 42 41 41 44 48 48 46 43 41 42 46 49 55 57 58 60 60 60 60 56 53 50 48 45 45 45 45 45 45 45 46 47 47 47 46 47 45 44 44 44
33 36 36 32 33 33 38 45 46 46 53 62 69 75 78 79 85 87 87 88 89 91 92 89 87 86 85 85 84 79 68 56 49 45 43 43 43 42 41 43 45 44 44 43 43 43 43 41 41 42 47 50 48 44 41 40 42 46 52 56 58 59 60 60 60 56 53 53 50 47 45 44 44 44 45 46 45 45 45 44 45 46 45 43 43 44
31 31 30 30 32 32 36 40 41 46 55 61 65 73 78 81 86 88 88 87 85 89 93 91 89 87 85 86 87 84 73 59 51 46 44 43 43 42 40 42 44 44 43 42 42 43 43 41 41 42 46 50 49 46 42 39 39 42 47 53 56 58 60 61 59 55 55 54 52 48 46 45 44 43 44 45 45 43 42 42 42 44 44 42 42 42
31 25 26 30 31 32 35 37 38 44 50 49 53 64 75 80 84 89 91 87 84 87 92 93 92 90 87 87 89 89 79 65 54 48 46 45 44 41 40 40 41 41 41 41 41 42 42 41 40 42 45 49 50 48 44 40 38 38 42 48 52 56 58 60 58 55 56 55 52 48 45 44 44 44 44 44 44 43 41 40 40 41 42 40 40 41
28 23 25 28 28 31 33 35 37 40 42 43 47 56 70 77 78 84 89 87 87 89 90 94 96 94 90 88 87 90 85 71 59 50 46 45 44 43 40 40 40 39 40 40 40 40 40 40 40 42 43 46 49 48 45 41 38 37 38 43 49 53 55 58 58 55 56 56 53 48 45 44 44 44 44 44 42 42 41 40 39 39 40 39 39 40
27 24 26 28 27 29 32 34 37 38 38 42 48 56 68 75 75 81 86 85 90 92 88 91 96 96 93 89 86 89 88 77 63 52 46 44 43 43 40 38 39 38 38 40 40 39 38 38 39 41 42 44 45 45 44 42 39 38 38 39 45 51 52 55 58 55 55 56 55 51 46 44 44 43 43 43 42 41 41 41 40 38 38 38 39 39
27 24 24 27 28 29 30 33 35 37 39 39 44 55 68 75 77 81 83 84 89 91 86 87 93 97 96 92 88 89 89 81 68 55 46 44 43 41 38 37 37 37 37 39 39 39 37 36 37 39 41 43 42 42 42 42 39 40 40 38 41 47 49 51 55 54 52 54 54 52 48 44 43 42 42 42 42 41 42 42 41 39 37 38 38 39
26 24 23 25 28 29 28 31 34 36 39 39 43 53 63 70 75 79 83 86 88 88 87 88 92 97 98 94 88 90 92 86 74 58 47 45 43 40 37 36 36 36 36 37 37 37 36 35 36 37 39 40 40 40 41 41 39 40 41 40 39 44 47 47 50 51 50 51 53 52 49 46 43 43 42 41 41 42 42 42 42 41 39 38 39 40
24 24 22 21 25 28 27 29 33 35 38 42 46 52 56 59 65 72 80 85 85 86 91 91 90 93 95 92 87 90 94 90 79 62 49 44 43 42 40 37 36 37 36 35 35 34 34 34 34 37 39 38 38 39 40 40 39 38 40 42 40 41 44 45 47 48 48 49 52 52 49 46 44 43 43 41 40 41 42 43 44 43 42 40 40 41
21 22 22 20 19 22 25 28 32 34 39 47 49 48 50 56 62 69 75 80 84 84 87 89 87 87 89 89 88 90 92 89 81 67 53 46 45 46 46 42 40 39 36 35 34 33 33 34 35 38 40 39 36 36 37 39 39 37 39 42 40 38 40 42 44 47 46 46 49 50 49 46 44 44 43 42 42 41 42 44 44 45 44 42 41 41
20 20 20 19 17 16 21 26 28 33 41 49 49 45 50 60 63 66 70 76 83 81 76 80 84 82 84 87 85 85 85 84 82 75 61 50 46 47 48 46 45 42 38 35 34 33 33 35 38 39 42 40 38 35 34 37 38 37 38 40 40 38 37 37 40 43 44 44 46 47 48 47 45 45 44 43 43 43 42 44 44 45 46 45 44 42
20 21 19 18 17 15 18 22 26 32 41 48 47 43 52 64 65 65 70 76 80 76 67 72 82 83 83 83 80 78 79 81 82 79 69 56 47 47 48 48 48 46 41 35 34 35 35 37 39 40 42 41 39 36 33 34 36 36 36 38 40 39 36 33 34 38 41 43 44 45 47 48 47 45 44 43 43 43 43 44 45 45 46 45 45 44
19 20 18 17 17 16 16 20 26 34 38 44 47 43 49 65 70 69 72 73 73 68 63 68 79 83 81 79 77 75 77 81 83 79 72 61 51 48 49 50 50 48 44 38 35 37 36 36 38 39 40 39 38 36 33 32 33 34 34 36 39 40 37 32 31 34 37 41 44 44 46 49 48 44 43 43 43 43 43 44 44 45 45 45 45 45
19 18 17 17 18 17 15 17 27 37 39 44 50 44 44 58 69 70 68 67 65 63 63 66 74 78 75 73 76 74 74 78 82 81 74 66 60 54 51 51 51 50 46 41 38 39 37 36 37 37 37 37 37 37 34 32 31 32 34 36 38 39 38 35 31 31 34 38 42 44 46 49 49 45 43 44 43 43 43 43 42 42 43 44 44 44
19 18 16 16 17 17 15 15 22 31 37 44 47 42 41 47 55 60 59 58 60 64 68 69 72 73 71 73 76 75 74 76 80 82 77 70 67 63 58 54 53 52 48 44 43 41 39 37 36 35 36 36 36 36 35 32 29 30 32 35 37 38 39 38 35 32 33 36 41 43 44 47 50 47 45 45 44 43 42 41 41 40 41 43 43 43
19 18 15 15 17 17 15 14 19 26 33 41 42 39 39 39 42 50 54 55 58 64 72 73 71 70 69 72 75 76 77 76 78 83 80 74 70 68 65 59 54 53 51 47 46 44 41 39 37 35 35 35 34 35 34 31 28 28 30 32 35 37 39 39 37 34 33 36 40 42 41 43 48 48 47 46 45 43 41 40 40 39 39 42 43 43
20 18 16 16 17 17 16 15 18 24 31 40 44 43 38 35 39 47 52 56 57 58 67 70 68 69 70 71 73 74 75 75 77 80 82 80 74 70 69 64 57 54 53 50 48 46 43 41 39 37 36 36 34 33 32 30 28 28 28 30 32 35 37 38 38 36 34 34 38 41 41 41 44 46 46 47 46 45 43 41 40 39 40 43 43 42
20 18 18 17 17 17 17 17 18 21 25 35 44 43 37 35 38 43 51 59 56 54 62 66 65 68 72 73 74 73 72 73 75 76 80 82 78 74 73 68 61 56 54 53 51 49 46 43 41 39 38 38 37 35 33 31 30 30 28 28 28 31 33 36 37 37 35 33 34 38 40 41 42 42 42 44 45 46 45 42 40 40 41 42 43 42
21 20 20 18 18 19 18 19 21 20 20 27 37 40 39 38 37 39 49 57 54 53 61 65 66 66 67 69 72 71 71 71 72 74 77 78 78 77 76 72 66 60 56 56 55 52 50 47 44 42 42 41 40 39 37 35 35 36 33 29 27 28 30 32 35 36 36 34 33 33 36 38 40 39 39 40 42 44 45 42 40 40 40 41 42 42
22 22 22 20 19 20 20 20 22 21 20 23 33 39 39 38 37 38 42 47 50 53 57 61 66 66 62 63 66 68 70 70 71 73 75 75 76 77 77 76 72 67 61 58 57 54 51 49 48 45 45 45 44 42 41 40 40 40 39 35 31 28 28 30 32 33 35 34 32 31 32 35 37 38 37 38 39 41 42 42 40 39 39 41 42 42
24 23 24 23 21 22 23 21 20 21 20 22 30 37 37 36 35 36 39 43 45 49 52 53 56 59 59 62 64 66 68 70 71 73 74 76 77 79 79 78 76 75 70 63 60 57 53 50 49 48 47 48 47 45 44 43 42 42 42 41 37 32 29 29 30 31 32 33 33 31 31 32 34 35 36 36 38 39 40 41 40 39 39 40 41 43
27 25 26 25 22 23 23 21 19 21 20 19 25 32 34 34 34 35 39 43 43 45 48 46 47 54 59 61 63 65 67 70 72 73 75 78 80 82 82 81 80 81 78 71 66 63 59 56 54 51 49 50 51 49 47 46 45 44 43 43 43 38 31 29 29 30 30 30 32 33 32 31 31 32 34 34 36 38 39 39 39 39 39 40 41 43
28 28 28 27 24 23 24 24 22 22 21 19 20 25 29 31 33 33 37 41 43 44 46 44 45 54 59 59 63 66 67 70 73 74 75 78 81 84 85 84 83 84 83 78 74 72 70 68 63 58 54 52 54 53 51 49 49 46 45 44 45 43 37 31 30 30 30 29 30 32 32 32 30 30 31 31 33 35 37 38 38 38 38 39 39 41
32 32 30 27 26 24 24 27 26 23 24 25 22 21 24 27 28 30 34 39 43 45 45 43 43 51 58 61 64 67 70 72 74 75 76 78 81 84 85 85 84 84 84 82 80 80 79 76 72 67 61 56 55 55 53 52 52 50 48 45 45 46 43 37 33 31 30 30 30 31 31 31 32 31 30 29 29 31 33 35 36 36 37 37 38 38
35 36 32 29 29 29 29 31 30 25 25 28 26 24 25 27 28 30 34 37 41 44 44 40 40 45 54 59 63 66 70 74 76 77 78 78 81 83 84 87 86 84 83 82 82 83 83 82 79 75 70 64 60 58 56 54 53 53 51 48 46 48 48 45 39 35 34 32 32 32 32 32 33 32 31 30 29 28 29 31 32 33 34 35 36 37
39 40 36 32 33 33 33 33 31 28 27 27 28 29 29 30 30 31 35 36 37 42 43 39 40 44 48 55 61 64 67 73 77 78 79 79 81 82 84 88 89 88 88 86 85 86 86 87 84 81 78 73 68 64 62 59 56 55 55 52 51 53 54 53 48 41 38 36 35 34 34 33 33 33 32 31 29 28 27 27 29 30 31 32 35 37
43 44 40 38 38 36 36 36 34 32 30 26 28 32 33 33 33 34 36 36 35 39 42 40 42 45 46 50 57 60 63 69 74 77 78 79 80 81 83 86 88 90 92 92 90 89 90 90 89 86 82 78 76 72 69 68 64 61 60 59 57 57 59 64 62 53 45 41 39 37 36 34 33 32 32 31 30 28 27 27 27 27 28 30 32 35
44 44 43 41 40 38 39 40 39 37 33 30 31 34 36 38 38 36 36 37 36 36 39 42 44 46 45 47 51 55 57 62 70 76 77 78 78 80 83 84 85 88 91 93 93 92 93 93 90 88 86 83 79 75 73 73 70 68 68 67 66 64 66 73 77 71 63 55 48 43 40 37 36 34 33 32 32 30 28 27 26 26 27 27 29 32
45 45 44 42 41 41 40 41 42 42 40 39 38 39 40 41 41 39 39 40 38 34 35 42 46 44 43 44 47 50 53 56 65 73 77 78 78 80 83 83 83 85 88 90 91 90 90 91 90 89 89 86 82 79 77 77 76 75 74 74 75 76 76 81 83 83 81 76 68 60 52 45 41 39 37 35 35 34 32 31 29 27 26 26 26 27
47 47 48 46 44 42 42 41 43 43 43 42 42 42 44 46 46 47 46 44 41 38 37 40 44 43 40 41 44 46 50 54 60 68 72 75 78 80 82 84 84 85 86 87 89 89 88 89 89 90 90 90 87 84 82 80 79 79 79 79 81 82 82 84 86 86 86 85 82 79 74 66 57 50 46 43 40 38 36 34 33 32 31 29 27 26
49 51 51 48 45 43 43 43 43 43 44 44 44 44 45 48 52 53 52 50 46 45 43 41 42 42 39 40 43 45 46 50 56 63 66 69 74 77 79 82 83 85 85 85 87 88 89 89 90 90 91 91 90 87 86 83 82 83 85 85 86 86 85 85 87 88 89 87 84 84 86 85 78 71 66 63 58 55 51 46 42 39 36 34 32 29
49 54 54 48 45 44 44 44 45 44 45 45 46 48 48 49 53 54 54 52 49 49 49 44 40 41 42 41 44 46 45 47 55 62 64 65 68 71 75 78 81 82 80 79 79 82 86 89 90 90 91 90 88 87 87 86 85 86 87 87 87 88 87 86 87 88 89 88 85 84 86 87 87 85 84 82 79 76 73 68 61 55 49 44 40 37
48 53 55 51 47 46 44 45 45 45 44 45 47 49 48 48 51 53 52 52 49 47 48 45 42 44 46 45 45 47 48 50 57 64 66 65 65 67 71 73 76 77 75 72 71 73 77 83 86 89 91 90 88 87 87 88 88 88 87 85 85 88 87 86 87 87 87 86 83 82 83 85 87 87 88 89 87 86 86 84 81 75 66 58 54 50
46 49 54 54 49 47 47 45 44 44 45 45 45 44 44 45 48 51 51 51 48 44 43 44 45 45 46 46 48 51 55 59 63 65 66 65 63 65 69 71 71 71 71 72 72 72 77 81 82 84 86 86 87 87 87 89 89 87 86 85 86 88 87 87 87 85 84 83 81 81 82 83 83 84 85 86 86 87 88 89 89 86 79 71 67 65
41 43 51 54 49 48 49 48 47 47 45 43 41 41 42 43 46 50 52 50 48 46 44 45 45 44 45 50 55 58 62 65 65 62 63 65 65 65 68 69 68 69 72 77 77 76 78 80 78 79 83 86 87 87 87 88 87 86 87 86 85 85 85 86 88 84 82 83 82 79 78 79 80 82 83 82 83 85 87 89 90 90 88 83 77 75
38 39 44 50 49 46 46 48 51 50 45 41 40 39 41 42 42 46 50 50 48 47 47 47 47 45 45 49 56 61 65 66 63 59 59 62 65 66 65 66 70 74 78 80 79 77 78 76 74 78 84 85 83 83 85 87 87 86 87 86 85 85 85 84 84 82 79 78 76 73 72 73 75 77 79 80 81 84 87 90 92 92 92 90 86 83
37 37 38 42 46 45 42 44 48 48 46 44 40 38 39 41 42 43 46 48 44 43 46 48 48 49 50 51 54 59 62 61 59 57 57 58 62 66 67 70 76 80 80 78 78 79 80 77 74 77 80 79 77 78 81 83 82 82 84 85 86 87 85 81 79 77 73 70 69 67 67 69 69 69 73 77 78 80 82 84 88 91 92 91 90 87
37 39 38 39 44 46 43 41 43 44 45 46 45 43 42 43 44 44 46 47 46 44 48 50 50 54 58 57 59 62 64 61 58 56 56 57 59 63 69 76 82 83 80 77 74 74 75 74 73 74 75 75 75 75 75 76 75 74 77 79 79 79 76 74 73 72 69 66 63 62 64 68 68 65 69 74 74 74 76 77 80 85 89 89 88 87
37 39 41 39 43 47 47 44 41 41 43 44 45 46 47 47 48 45 44 49 51 50 52 53 54 58 61 63 66 69 67 64 61 58 56 55 56 57 62 71 80 82 79 74 68 68 70 70 71 73 75 75 74 71 71 72 72 69 69 71 72 69 66 65 68 69 66 63 60 60 64 69 68 64 64 68 71 73 75 77 77 78 80 82 84 84
34 37 39 38 41 47 49 49 46 44 44 44 44 45 46 47 48 46 46 50 53 53 54 54 55 59 63 64 67 68 66 65 66 64 60 56 55 56 60 67 72 74 72 68 65 67 69 70 72 74 74 71 69 69 69 69 67 64 64 66 66 63 61 60 62 63 62 60 58 59 62 65 65 61 58 60 65 69 72 75 76 76 77 78 78 79
34 37 39 38 39 42 46 49 50 49 49 49 48 48 46 44 46 49 51 51 50 51 52 52 54 59 63 65 65 65 66 67 68 70 68 62 59 60 62 65 67 68 68 69 72 74 75 73 72 71 69 66 64 63 64 63 61 58 58 58 58 58 56 56 57 57 57 56 55 54 55 57 58 58 56 57 59 61 63 65 67 68 71 72 74 77
31 33 36 37 38 39 42 45 47 49 53 54 53 50 46 45 46 49 50 48 46 48 50 49 51 57 64 66 64 63 67 69 68 70 71 68 64 62 60 61 61 61 64 67 71 74 73 69 64 60 59 59 57 56 55 54 52 50 49 48 48 48 48 48 49 50 49 49 48 48 48 48 48 48 48 50 52 54 55 56 57 58 60 63 67 70
29 27 28 32 34 36 38 41 42 46 53 56 54 50 48 49 50 52 51 46 44 48 50 48 50 55 61 66 64 64 70 74 73 73 72 71 70 67 63 62 61 59 58 61 65 67 66 62 57 53 51 51 50 48 47 44 43 41 40 39 39 38 38 38 39 39 39 39 39 39 40 40 40 40 39 40 41 44 46 47 48 48 49 50 52 54
32 30 28 28 29 30 32 37 41 46 52 55 54 51 51 52 52 53 53 50 47 49 51 50 51 54 58 64 65 66 72 75 75 75 73 70 70 70 66 65 65 64 62 62 63 63 61 57 53 49 46 45 44 43 41 39 37 37 36 36 35 35 34 34 33 33 32 32 32 32 32 32 33 33 34 34 34 35 37 39 41 41 41 41 41 41
36 36 33 31 29 30 32 36 41 46 50 52 53 52 51 49 48 48 51 53 54 54 52 51 52 54 58 63 63 64 69 72 71 72 73 70 70 71 68 66 65 65 65 63 61 61 59 53 49 46 43 41 40 39 39 37 36 35 35 35 35 35 34 33 32 31 31 30 29 29 29 30 30 30 31 31 31 31 31 32 34 35 35 35 34 33
38 38 36 34 33 33 34 36 39 42 46 47 48 48 48 47 46 45 46 50 55 57 56 53 53 56 59 61 61 62 66 68 66 67 68 66 67 69 67 64 64 66 66 64 61 60 56 51 47 44 40 36 34 35 37 38 37 37 36 36 36 36 36 36 35 34 33 32 31 30 29 29 29 30 30 30 30 30 29 29 29 30 30 29 29 28
40 39 37 36 37 36 37 39 39 40 44 45 44 44 45 45 46 47 47 48 52 56 58 55 54 56 59 60 62 63 66 68 67 65 63 60 59 61 60 58 58 61 64 66 66 64 60 55 49 43 39 35 33 33 34 36 37 38 37 37 37 37 36 36 36 35 35 34 33 33 31 30 29 29 30 31 31 31 30 29 29 29 29 28 28 27
44 43 42 42 41 39 40 42 42 41 42 42 41 41 42 43 44 46 47 49 51 55 59 58 57 59 61 61 61 61 64 68 68 66 64 62 58 58 60 59 56 55 57 60 63 65 64 61 56 52 48 45 43 41 38 36 37 37 38 37 37 37 36 36 36 35 35 35 34 34 33 32 31 30 31 33 36 37 36 35 34 33 32 30 30 28
48 47 48 48 47 44 44 45 44 43 41 39 38 38 38 38 40 42 44 46 48 52 58 62 64 66 65 64 62 61 64 71 73 73 73 72 68 67 70 70 65 60 57 56 58 58 58 57 56 55 56 56 54 51 48 43 40 40 39 38 36 35 34 33 33 33 33 33 33 33 32 31 30 30 33 37 39 39 40 39 38 37 35 32 31 30
49 49 50 50 48 49 50 50 49 47 46 45 43 41 38 36 36 38 40 43 45 47 51 56 61 65 65 65 63 62 64 71 76 78 79 77 74 75 79 79 74 69 64 60 58 56 53 53 55 56 57 58 58 55 52 48 45 43 42 41 40 38 36 34 32 32 32 32 31 30 30 30 28 27 31 37 40 38 38 38 38 37 37 35 33 31
48 48 49 48 48 50 52 53 53 51 50 50 49 46 44 41 38 37 38 40 42 44 46 48 52 57 60 62 63 63 63 66 71 75 77 76 73 75 78 79 78 75 70 67 66 63 57 55 57 59 57 57 58 58 56 53 48 44 43 42 40 39 38 37 37 36 35 34 33 30 28 28 27 26 28 33 35 34 34 35 36 36 36 35 35 33